Back to catalog

KUIPER-00178

AliveCommunicationsLEO
NORAD 67767·PAYLOAD·🇺🇸 United States

Launched Feb 12, 2026 from Guiana Space Centre

Loading…

Next Passes (next 24 hours)

TLE

FreshSource: CelesTrak SupGP

Epoch: Sep 14, 2026, 15:29 UTC

1 67767C 26030D   26257.64559028 -.00002435  00000+0 -31871-3 0  2570
2 67767  51.8986  97.5458 0000710 103.5589 137.7052 14.79933392    15

Track KUIPER-00178 in real time with AllMySat

Download on the App Store